Starlink 5455

operational
NORAD ID: 55668 Int'l Des: 2023-021 Owner: SPXS Country: US Constellation: starlink
LEOCIRCULAR

Über Starlink 5455

Beschreibung wird geladen...

Live-Position

3D-Globus wird geladen...

Nächste Überflüge

Höhenverlauf

Altitude vs Time

uPlot chart will show altitude changes over time

Zweizeiliger Elementsatz

1 55668U 23021AS 25260.05100409 .00000926 00000-0 85390-4 0 9998
2 55668 69.9983 242.3180 0003392 271.2000 88.8771 14.98314692143278
Epoch: 17. Sept. 2025 • Age: 25 hours

Aktueller Status

Höhe 582.8 km
Geschwindigkeit 7.57 km/s
Subsatellitenpunkt 55.80°N, 3.54°E
Startdatum 17. Feb. 2023
Alter 2.5 years
Typ internet

Technische Details

Klassifizierung Payload
Masse 305.00 kg
Trockenmasse 290.00 kg
Gesamtmasse 305.00 kg
Länge 0.20 m
Durchmesser 2.80 m
Spannweite 9.00 m
Form Box + pan
Hersteller SPXS
Bus-Typ Starlink
Phasenstatus In Orbit
Besitzer/Staat SPXS/US

Große Konstellationen

Loading constellations...